Temp
58 58 58 58 58 58 58 59 58 58 59 59 59 59 60 60 59 62 77 84 77 74 82 84 85 79 81 82 76 82 81 83 80 73 74 75 74 78 76 77 73 71 69 70 72 66 62 81 81 71 74 81 80 80
57 57 57 57 57 58 58 58 58 58 58 59 59 59 59 59 59 59 75 85 84 74 79 86 87 88 85 84 80 82 80 78 81 76 77 77 74 78 74 67 81 70 75 71 71 69 78 84 80 82 84 80 81 80
57 57 57 57 57 57 58 58 57 58 58 58 59 59 59 59 59 59 69 77 79 77 80 84 84 88 92 89 92 76 81 84 83 85 77 75 69 77 69 72 74 79 80 74 73 78 79 82 84 84 84 82 83 84
57 57 57 57 57 57 57 57 57 57 58 58 58 59 59 59 58 58 69 79 78 75 71 81 92 84 91 92 88 88 84 86 85 82 76 74 72 81 74 75 73 78 78 73 72 76 78 81 82 82 82 82 82 84
56 56 56 57 57 56 57 57 57 57 57 58 58 58 59 58 57 62 73 80 82 72 68 72 85 91 91 88 84 85 83 81 78 75 74 72 79 78 79 77 72 80 75 71 69 75 74 75 80 82 80 80 81 81
55 55 56 56 56 56 56 57 56 57 57 57 58 58 58 57 57 68 72 81 80 78 69 68 87 83 85 84 82 80 81 79 78 75 76 79 83 77 69 67 77 82 82 79 72 80 80 79 80 82 80 81 82 79
55 55 56 56 56 56 56 56 56 57 57 57 57 57 57 56 63 67 65 69 59 73 69 68 74 84 84 82 82 81 82 79 78 76 74 75 76 76 71 65 76 80 80 80 81 79 75 78 75 80 80 79 80 82
55 55 55 55 56 56 56 55 55 56 57 57 57 57 56 56 56 64 73 58 62 71 73 65 69 76 83 76 74 82 77 78 76 75 76 73 75 74 66 73 76 78 77 78 78 80 76 76 80 78 78 79 79 79
54 55 55 55 55 55 55 55 55 56 56 56 57 57 63 63 70 68 60 59 74 69 64 69 66 66 83 77 80 78 78 69 79 72 72 74 70 62 70 72 73 75 73 75 77 78 77 73 76 71 75 76 76 77
54 54 54 55 55 55 55 55 55 56 55 56 59 62 61 66 59 62 66 66 67 69 68 63 73 68 79 76 74 74 75 68 64 67 76 68 67 74 71 72 77 77 77 78 71 68 69 69 70 73 75 78 78 76
54 54 54 54 55 55 55 55 55 55 54 61 61 60 69 59 69 67 58 57 59 57 65 67 69 67 80 68 69 69 65 67 60 66 63 64 65 72 76 75 76 76 75 74 73 75 75 74 71 72 74 76 75 74
54 54 54 54 55 55 55 55 55 56 58 55 59 65 71 66 61 57 55 59 57 58 69 67 69 71 74 76 68 68 64 63 57 72 62 60 66 73 75 74 75 75 72 75 75 72 73 74 73 72 74 73 73 73
54 54 54 54 54 55 55 55 55 54 56 65 62 60 60 59 44 51 50 55 58 66 69 70 65 71 73 73 67 66 59 60 71 61 60 66 67 70 69 73 73 75 74 75 72 73 73 71 75 74 72 73 72 68
53 53 54 54 54 54 54 55 55 55 55 54 55 40 53 54 58 61 63 63 70 71 72 68 63 65 62 60 64 57 64 65 54 55 59 61 65 67 72 73 73 74 73 72 71 72 72 73 72 72 73 73 70 67
53 53 54 54 54 54 54 55 54 54 51 50 57 46 58 67 69 71 70 70 72 76 70 67 66 64 60 59 64 62 57 54 59 60 60 63 67 69 69 71 73 71 70 72 74 71 70 68 67 69 70 70 68 65
53 53 56 56 54 54 54 54 53 53 50 50 53 55 64 64 65 69 70 69 75 75 71 69 63 58 57 61 59 57 58 57 54 60 63 64 66 69 69 71 72 72 69 70 70 70 70 69 67 66 67 65 64 61
53 53 56 55 55 54 53 53 50 48 48 46 50 63 63 64 62 67 71 66 74 70 60 59 55 55 65 59 58 63 57 59 63 64 66 66 67 68 70 70 71 70 67 66 70 69 67 67 65 62 57 58 59 57
51 54 55 55 56 54 52 50 48 47 44 48 52 62 66 68 62 64 69 56 68 68 62 60 64 56 56 56 58 60 62 58 65 68 64 65 71 71 72 72 70 69 68 67 66 66 65 60 57 55 55 55 55 55
50 53 54 54 55 53 47 47 48 44 47 51 55 64 66 66 69 71 69 70 69 70 68 62 57 58 60 65 67 58 67 68 56 55 72 73 74 73 72 72 70 68 66 66 65 64 60 58 56 54 54 54 52 54
53 53 53 53 53 48 46 46 50 47 48 60 65 63 65 64 69 69 68 66 66 64 59 56 59 65 66 67 60 69 63 56 58 70 71 72 75 71 71 71 70 67 65 67 66 57 62 58 57 55 54 52 50 51
51 55 53 54 50 48 47 46 50 55 58 56 64 60 61 63 65 63 64 68 62 58 57 65 67 71 71 73 71 64 55 68 62 65 69 65 70 73 72 69 68 62 66 65 63 58 60 58 55 54 52 51 51 51
53 55 50 51 47 47 47 55 49 56 55 61 61 63 60 59 60 61 67 59 62 65 67 67 65 69 68 68 71 71 73 73 73 71 62 66 70 66 66 68 71 67 63 62 63 63 62 61 56 54 52 51 50 50
52 51 49 49 45 43 46 58 51 54 50 56 61 55 58 59 64 69 61 64 66 71 71 71 69 66 69 72 72 72 72 71 70 71 71 71 72 71 69 71 71 69 64 67 70 70 66 56 58 60 58 56 53 51
51 47 45 49 47 42 55 51 55 54 57 56 56 54 55 56 62 57 56 61 64 66 63 63 69 68 66 65 62 67 70 72 69 70 70 63 65 66 63 69 73 76 75 73 74 74 71 69 60 66 65 63 61 59
41 43 44 39 52 48 49 47 49 52 49 53 51 52 55 56 52 53 55 59 58 58 60 63 61 59 58 56 59 62 68 70 66 62 61 66 62 57 64 75 74 75 78 75 73 73 72 72 71 71 70 69 67 65
38 49 42 50 50 49 51 48 50 50 51 49 52 54 57 51 48 48 51 52 53 54 56 58 60 57 59 58 67 65 61 64 62 64 67 63 60 66 70 69 68 70 75 77 74 73 73 73 72 71 71 67 55 69
38 43 49 57 53 54 52 54 50 45 45 46 51 50 48 43 45 53 61 59 58 61 60 58 59 56 59 67 72 73 71 73 67 65 70 68 75 76 73 71 67 72 77 79 78 76 74 74 73 73 72 72 72 72
47 47 44 53 53 53 47 48 47 46 47 48 47 44 44 45 47 53 56 60 58 60 62 62 60 59 68 72 72 67 72 75 74 76 76 79 73 79 78 78 76 58 72 73 75 78 77 76 75 74 73 73 73 75
52 55 49 47 49 47 46 45 47 50 51 47 43 44 48 51 55 55 60 66 64 64 67 67 69 73 72 71 69 73 75 75 71 69 69 71 73 74 78 79 78 79 79 78 50 63 71 74 76 76 76 75 75 75
53 55 49 49 46 46 50 52 51 53 53 55 57 58 62 55 55 61 65 64 66 73 74 75 77 77 75 73 71 72 75 80 80 78 72 73 76 80 80 79 79 81 80 79 78 76 57 69 68 75 73 71 74 72
59 58 52 49 48 55 61 65 67 66 64 62 65 66 64 61 64 60 65 67 74 79 77 77 78 79 78 78 78 76 76 81 81 79 81 79 82 82 81 80 80 79 80 78 77 75 76 75 76 74 75 75 74 72
63 58 56 54 58 65 68 63 62 62 64 63 60 57 71 71 56 57 60 69 75 69 61 66 76 79 80 81 83 80 62 80 82 81 80 79 69 67 79 81 75 71 76 71 76 69 71 68 68 69 66 70 72 71
60 63 62 62 60 60 64 66 61 59 59 58 55 57 65 71 66 71 72 69 62 59 58 60 64 66 79 80 81 80 73 78 62 46 46 48 50 62 77 76 71 67 68 61 66 74 68 70 71 72 68 67 71 69
MSLP
1021.76 1021.86 1021.87 1021.85 1021.78 1021.58 1021.32 1021.08 1020.99 1020.86 1020.54 1020.17 1019.85 1019.45 1018.88 1018.24 1017.64 1016.87 1013.95 1012.77 1012.54 1010.78 1008.66 1008.14 1007.76 1007.65 1007.12 1006.67 1006.13 1005.59 1005.41 1004.54 1004.90 1004.42 1003.94 1003.23 1002.46 1001.81 1001.68 1002.09 1002.58 1002.76 1002.82 1002.84 1002.77 1002.81 1003.26 1004.22 1003.77 1003.93 1005.12 1005.13 1005.51 1005.70
1021.49 1021.58 1021.59 1021.52 1021.45 1021.32 1021.13 1020.98 1020.89 1020.72 1020.44 1020.13 1019.90 1019.57 1019.08 1018.55 1017.99 1017.39 1014.32 1012.94 1012.94 1012.16 1009.66 1009.23 1008.66 1008.53 1008.58 1008.29 1007.84 1006.99 1006.39 1006.25 1005.52 1005.23 1004.53 1004.15 1003.36 1002.72 1002.75 1002.76 1003.00 1003.07 1003.47 1003.85 1004.30 1004.45 1004.77 1004.47 1004.90 1005.42 1005.63 1005.92 1005.91 1006.13
1021.11 1021.22 1021.24 1021.16 1021.13 1021.07 1020.92 1020.86 1020.78 1020.58 1020.31 1020.06 1019.85 1019.57 1019.16 1018.76 1018.39 1018.22 1016.15 1014.22 1012.89 1011.13 1009.20 1007.83 1007.27 1008.13 1008.14 1008.29 1008.25 1008.02 1007.25 1006.93 1006.53 1006.75 1006.60 1005.90 1004.90 1004.44 1003.93 1003.47 1003.41 1003.38 1004.12 1004.03 1004.68 1004.70 1004.86 1004.99 1005.26 1005.55 1005.87 1006.32 1006.41 1006.34
1020.75 1020.86 1020.86 1020.80 1020.82 1020.78 1020.72 1020.71 1020.63 1020.45 1020.17 1019.95 1019.73 1019.48 1019.15 1018.80 1018.46 1018.27 1016.41 1014.57 1013.68 1012.36 1009.91 1007.37 1007.47 1008.16 1008.13 1008.08 1008.35 1008.36 1008.17 1008.03 1007.92 1007.79 1007.25 1006.40 1005.57 1004.98 1004.52 1004.52 1004.72 1004.61 1004.70 1004.98 1005.26 1005.43 1005.44 1005.49 1005.84 1006.16 1006.46 1006.82 1006.93 1006.69
1020.39 1020.51 1020.53 1020.45 1020.50 1020.58 1020.56 1020.52 1020.46 1020.30 1020.04 1019.83 1019.61 1019.37 1019.08 1018.76 1018.37 1017.74 1016.13 1014.48 1014.08 1013.81 1011.39 1009.28 1007.99 1007.32 1007.51 1008.09 1008.64 1008.64 1008.56 1008.28 1008.06 1007.68 1007.07 1006.33 1005.71 1005.37 1005.06 1005.08 1005.27 1005.20 1005.03 1005.27 1005.34 1006.20 1006.53 1006.67 1006.67 1006.76 1006.76 1006.81 1006.96 1006.74
1020.03 1020.16 1020.18 1020.18 1020.24 1020.39 1020.39 1020.37 1020.31 1020.14 1019.92 1019.73 1019.51 1019.28 1019.00 1018.72 1018.34 1017.03 1014.50 1014.16 1014.55 1014.36 1012.89 1009.83 1007.17 1007.40 1007.66 1008.24 1008.56 1008.58 1008.56 1008.42 1008.22 1007.72 1006.81 1006.20 1005.81 1005.96 1005.87 1005.59 1005.58 1005.19 1005.64 1006.14 1006.35 1006.55 1006.59 1007.07 1007.23 1007.13 1007.07 1006.95 1006.75 1006.78
1019.66 1019.79 1019.85 1019.97 1020.11 1020.20 1020.23 1020.23 1020.13 1019.93 1019.75 1019.59 1019.42 1019.19 1018.89 1018.67 1018.10 1016.83 1016.76 1016.06 1016.53 1015.72 1013.38 1010.50 1007.64 1006.84 1007.71 1007.99 1008.01 1007.91 1008.02 1008.11 1007.90 1007.53 1007.12 1006.77 1006.36 1006.56 1006.22 1006.04 1006.16 1006.06 1006.08 1006.24 1006.71 1007.03 1007.19 1007.31 1007.49 1007.38 1007.38 1007.33 1006.82 1006.67
1019.33 1019.46 1019.56 1019.78 1019.95 1020.00 1020.03 1020.04 1019.95 1019.79 1019.60 1019.41 1019.17 1018.95 1018.66 1018.35 1018.01 1016.81 1015.83 1016.39 1016.57 1015.12 1013.24 1011.01 1008.23 1006.96 1007.55 1007.34 1007.19 1007.40 1007.47 1007.65 1007.63 1007.26 1007.11 1006.69 1006.31 1006.47 1006.31 1006.38 1006.54 1006.80 1006.96 1007.00 1007.16 1007.32 1007.84 1007.95 1007.46 1007.61 1007.62 1007.34 1006.76 1006.47
1018.98 1019.12 1019.31 1019.54 1019.72 1019.80 1019.80 1019.84 1019.76 1019.67 1019.48 1019.27 1019.03 1018.73 1017.88 1017.44 1015.66 1015.90 1016.34 1016.31 1015.60 1015.22 1012.98 1010.40 1008.57 1006.89 1007.28 1007.23 1006.81 1007.15 1007.30 1006.93 1006.69 1006.79 1006.68 1006.77 1006.31 1006.12 1006.31 1006.66 1006.88 1007.21 1007.44 1007.47 1007.61 1007.83 1007.98 1008.13 1007.80 1007.85 1007.67 1007.32 1006.86 1006.36
1018.66 1018.85 1019.11 1019.32 1019.47 1019.59 1019.63 1019.64 1019.62 1019.52 1019.39 1019.19 1018.89 1017.70 1016.17 1015.88 1016.19 1016.35 1016.40 1015.30 1014.67 1013.78 1013.07 1010.93 1009.25 1007.71 1007.21 1006.96 1006.75 1007.08 1007.51 1007.61 1007.04 1007.00 1006.35 1006.46 1006.25 1006.06 1006.14 1006.46 1006.74 1007.13 1007.30 1007.43 1007.86 1008.05 1008.15 1008.06 1007.90 1007.69 1007.30 1006.86 1006.47 1006.33
1018.45 1018.62 1018.86 1019.09 1019.25 1019.38 1019.50 1019.51 1019.48 1019.49 1019.34 1018.64 1017.54 1016.58 1015.84 1016.29 1016.03 1015.20 1014.91 1014.62 1013.82 1012.90 1011.55 1010.25 1009.44 1008.56 1007.58 1007.74 1007.40 1007.96 1008.06 1008.04 1007.43 1006.84 1006.99 1006.36 1005.70 1005.41 1005.93 1006.58 1007.10 1007.45 1007.80 1007.97 1008.05 1008.04 1007.98 1007.91 1007.82 1007.53 1007.13 1006.73 1006.84 1006.90
1018.26 1018.48 1018.70 1018.85 1019.02 1019.21 1019.37 1019.41 1019.43 1019.36 1018.70 1018.75 1018.30 1016.81 1015.43 1015.12 1014.93 1014.47 1013.78 1013.19 1012.59 1010.90 1009.47 1009.07 1008.72 1008.78 1008.37 1008.59 1008.69 1008.53 1008.20 1008.54 1007.53 1006.95 1007.16 1006.33 1006.18 1006.15 1006.46 1006.95 1007.39 1007.75 1008.04 1008.00 1007.98 1008.08 1007.95 1007.74 1007.65 1007.48 1007.20 1007.13 1007.09 1006.89
1018.11 1018.36 1018.54 1018.69 1018.90 1019.10 1019.21 1019.26 1019.30 1019.31 1018.90 1017.57 1017.46 1015.99 1014.68 1014.29 1013.98 1013.02 1011.78 1011.30 1010.37 1009.56 1009.04 1008.82 1009.03 1008.74 1008.75 1009.19 1009.17 1009.04 1008.59 1008.03 1007.61 1007.15 1006.61 1006.39 1006.96 1007.16 1007.56 1007.61 1007.69 1007.92 1008.03 1007.93 1008.00 1007.96 1007.83 1007.67 1007.50 1007.36 1007.24 1007.21 1007.03 1006.91
1018.03 1018.26 1018.45 1018.62 1018.79 1018.94 1019.06 1019.14 1019.27 1019.32 1019.12 1017.60 1016.19 1015.52 1013.99 1012.48 1011.53 1010.37 1009.65 1009.45 1008.94 1008.53 1008.76 1009.09 1009.56 1009.70 1010.11 1010.12 1009.50 1009.28 1008.62 1008.12 1007.92 1007.03 1006.50 1007.11 1007.66 1007.95 1007.86 1008.03 1008.16 1007.82 1007.85 1007.93 1007.88 1007.59 1007.67 1007.52 1007.50 1007.61 1007.31 1007.05 1006.99 1007.00
1018.01 1018.22 1018.38 1018.53 1018.67 1018.83 1018.98 1019.06 1019.22 1019.27 1018.81 1017.66 1015.88 1014.14 1012.06 1010.54 1009.88 1009.56 1009.09 1008.85 1008.75 1008.54 1009.13 1009.47 1009.83 1010.10 1010.09 1009.94 1009.18 1008.72 1008.47 1007.92 1007.22 1006.67 1007.38 1008.25 1008.31 1008.39 1008.46 1008.50 1008.29 1008.17 1008.06 1007.96 1007.66 1007.82 1008.04 1008.09 1007.88 1007.47 1007.37 1007.25 1007.30 1007.25
1017.99 1018.16 1017.90 1017.97 1018.40 1018.69 1018.91 1019.11 1019.28 1019.08 1018.62 1017.61 1016.09 1013.81 1011.57 1010.22 1009.52 1009.32 1008.86 1008.63 1008.61 1008.57 1009.16 1009.27 1009.38 1009.73 1009.54 1008.85 1008.07 1007.94 1007.36 1007.12 1008.17 1008.36 1008.66 1008.81 1008.74 1008.73 1008.74 1008.63 1008.46 1008.34 1008.39 1008.25 1008.18 1008.27 1008.21 1008.11 1008.05 1007.80 1007.71 1007.73 1007.59 1007.62
1017.89 1017.38 1017.13 1017.72 1018.20 1018.65 1018.89 1019.00 1018.98 1018.61 1017.98 1016.93 1015.31 1013.28 1012.14 1010.92 1010.10 1009.59 1009.46 1009.78 1009.25 1008.85 1009.34 1009.86 1009.60 1009.18 1008.20 1007.90 1007.25 1007.04 1007.41 1007.99 1008.66 1009.00 1009.19 1009.37 1009.09 1008.82 1008.78 1008.68 1008.62 1008.58 1008.65 1008.65 1008.29 1008.35 1008.55 1008.71 1008.72 1008.63 1008.52 1008.32 1008.15 1007.82
1017.65 1017.24 1017.37 1017.80 1018.15 1018.57 1018.95 1018.97 1018.47 1017.84 1017.06 1016.25 1014.90 1012.45 1011.39 1010.59 1010.15 1010.73 1010.41 1010.66 1009.95 1009.17 1009.71 1009.81 1009.80 1009.21 1008.28 1007.43 1007.20 1008.14 1008.47 1009.16 1009.32 1008.90 1008.66 1008.46 1008.47 1008.40 1008.33 1008.17 1008.46 1008.68 1008.81 1008.83 1008.97 1009.05 1009.29 1009.47 1009.40 1009.37 1009.08 1008.76 1008.34 1007.79
1017.70 1017.70 1017.77 1017.94 1017.98 1018.15 1018.52 1018.62 1018.38 1017.21 1016.14 1015.30 1014.16 1012.45 1011.18 1010.61 1010.29 1009.86 1009.90 1010.24 1010.22 1009.78 1009.88 1010.02 1009.71 1008.65 1007.97 1007.60 1007.65 1008.23 1008.61 1008.87 1008.74 1009.62 1007.98 1007.87 1007.79 1007.82 1007.96 1008.23 1008.56 1008.78 1009.18 1009.34 1009.59 1009.73 1010.00 1010.11 1010.14 1009.88 1009.55 1009.22 1008.77 1008.30
1017.89 1017.98 1018.11 1018.24 1018.45 1018.15 1017.96 1017.81 1017.66 1016.77 1015.09 1012.99 1012.12 1011.33 1010.61 1010.03 1009.66 1009.70 1009.74 1009.74 1009.76 1009.64 1009.36 1009.14 1008.90 1008.26 1007.75 1007.78 1008.60 1008.63 1008.94 1009.03 1009.44 1007.66 1007.57 1007.56 1007.36 1007.64 1008.03 1008.24 1008.46 1008.85 1009.31 1009.31 1009.82 1010.05 1010.10 1010.27 1010.36 1010.23 1010.15 1009.90 1009.42 1008.91
1017.93 1017.65 1018.14 1018.16 1018.53 1018.47 1017.68 1016.97 1016.25 1014.77 1013.11 1012.25 1011.09 1010.59 1010.13 1010.02 1009.26 1009.32 1009.24 1009.20 1009.05 1008.92 1008.94 1008.53 1008.18 1007.68 1007.42 1007.42 1007.63 1008.07 1008.79 1008.72 1007.99 1008.11 1007.89 1008.08 1008.02 1008.03 1008.21 1008.45 1008.64 1008.94 1009.05 1009.75 1010.11 1010.18 1010.27 1010.61 1010.88 1010.84 1010.67 1010.44 1010.24 1009.75
1017.25 1017.54 1018.04 1018.25 1018.05 1017.95 1017.10 1015.83 1015.26 1014.22 1013.17 1011.26 1010.56 1009.93 1009.55 1009.21 1008.79 1008.67 1008.59 1008.71 1008.12 1007.64 1007.72 1007.79 1007.76 1007.60 1007.40 1007.49 1007.37 1007.27 1007.25 1007.37 1007.56 1007.91 1008.09 1008.17 1008.05 1007.98 1008.47 1008.54 1008.27 1008.64 1009.12 1009.68 1009.88 1009.90 1010.38 1010.90 1011.22 1011.22 1011.07 1011.00 1010.70 1010.39
1017.59 1017.68 1017.64 1017.57 1017.44 1016.96 1015.41 1014.47 1014.08 1013.27 1012.24 1010.82 1010.03 1009.62 1008.95 1008.52 1008.00 1007.82 1007.36 1007.07 1006.84 1006.63 1006.61 1006.60 1006.66 1006.79 1007.07 1007.00 1007.07 1007.18 1007.25 1007.35 1007.46 1007.52 1007.46 1007.62 1007.68 1007.87 1008.20 1008.24 1008.38 1008.37 1008.84 1008.96 1008.86 1008.86 1009.81 1010.67 1010.83 1010.93 1011.13 1011.17 1010.90 1010.76
1017.67 1017.27 1016.75 1016.05 1016.01 1015.15 1014.07 1013.45 1013.07 1012.55 1011.47 1010.45 1009.80 1009.03 1008.57 1008.36 1008.30 1007.98 1007.00 1006.54 1006.33 1006.17 1006.46 1006.62 1006.31 1006.39 1006.72 1007.05 1007.26 1007.08 1006.86 1006.94 1007.22 1007.39 1007.51 1007.77 1007.78 1007.91 1008.11 1007.87 1007.58 1007.16 1007.27 1007.94 1007.85 1008.07 1008.72 1009.21 1009.78 1009.84 1010.02 1010.12 1010.41 1010.62
1017.01 1016.43 1015.86 1014.92 1014.19 1014.01 1013.12 1012.86 1012.41 1011.85 1011.15 1010.47 1009.97 1009.30 1008.68 1008.86 1008.42 1007.67 1006.87 1006.50 1006.64 1006.67 1006.69 1006.66 1006.87 1007.06 1007.45 1007.48 1007.48 1006.83 1006.41 1006.61 1006.98 1007.38 1007.66 1007.73 1007.71 1008.33 1008.17 1007.36 1007.55 1007.54 1007.16 1007.29 1007.71 1007.94 1008.35 1008.69 1008.84 1008.77 1008.87 1009.08 1009.40 1009.45
1015.73 1014.54 1014.33 1013.34 1012.95 1012.69 1012.19 1011.57 1011.38 1011.24 1011.04 1010.56 1009.92 1009.62 1009.35 1009.26 1008.69 1007.80 1007.35 1007.26 1007.20 1006.98 1007.01 1007.10 1007.14 1007.41 1007.26 1006.78 1006.08 1005.87 1006.35 1006.57 1006.89 1007.47 1007.68 1007.71 1008.23 1007.97 1007.39 1007.58 1007.81 1007.90 1007.83 1007.66 1007.86 1008.02 1008.12 1008.27 1008.44 1008.62 1008.78 1009.01 1009.15 1008.83
1014.94 1013.91 1013.45 1013.04 1012.60 1012.15 1011.70 1011.32 1011.69 1011.75 1010.89 1010.34 1009.82 1009.88 1009.94 1009.61 1008.65 1007.64 1007.05 1007.00 1007.00 1006.74 1006.68 1006.73 1006.92 1007.16 1006.77 1006.11 1005.60 1005.96 1006.44 1006.56 1006.82 1007.26 1007.15 1007.30 1006.99 1006.96 1007.17 1007.54 1007.81 1007.97 1007.44 1007.43 1007.63 1007.79 1008.00 1008.17 1008.33 1008.44 1008.58 1008.75 1008.83 1008.90
1013.68 1012.94 1012.42 1011.63 1011.60 1011.59 1011.51 1011.24 1011.20 1010.89 1010.56 1010.55 1010.61 1009.97 1009.79 1009.65 1009.11 1008.36 1007.71 1007.08 1006.49 1006.14 1005.88 1006.10 1006.52 1006.63 1006.21 1006.09 1006.28 1006.59 1006.60 1006.61 1006.78 1006.52 1006.51 1006.22 1006.40 1006.51 1006.99 1007.33 1007.84 1008.24 1008.35 1008.37 1008.21 1007.83 1008.06 1008.28 1008.45 1008.53 1008.56 1008.52 1008.50 1008.48
1012.03 1011.24 1011.52 1011.12 1011.20 1011.35 1011.14 1010.97 1010.23 1009.88 1010.05 1010.28 1010.25 1009.76 1009.67 1009.80 1009.22 1007.86 1007.51 1006.97 1006.71 1006.34 1005.95 1006.00 1006.17 1006.33 1006.24 1006.25 1006.50 1006.47 1006.32 1006.38 1006.43 1006.29 1006.26 1006.19 1006.36 1006.94 1007.34 1007.50 1007.82 1007.73 1007.93 1008.38 1008.79 1008.59 1008.73 1008.55 1008.33 1008.36 1008.23 1008.36 1008.53 1008.59
1010.56 1010.47 1010.50 1010.32 1010.24 1009.72 1009.37 1009.37 1009.11 1008.96 1009.35 1009.31 1009.21 1008.52 1008.18 1008.72 1007.79 1007.79 1007.53 1007.18 1006.17 1005.24 1005.01 1004.97 1004.78 1004.82 1004.93 1005.22 1005.64 1005.85 1005.86 1005.49 1005.33 1005.46 1005.85 1005.77 1005.92 1006.27 1006.66 1006.95 1007.20 1007.25 1007.73 1008.20 1008.55 1008.95 1009.22 1009.07 1008.80 1008.50 1008.23 1008.26 1008.21 1008.28
1009.20 1009.35 1009.40 1009.25 1008.94 1008.31 1007.85 1007.62 1007.42 1007.38 1007.56 1007.52 1007.25 1006.35 1006.31 1006.47 1007.01 1007.41 1007.04 1006.46 1005.73 1004.72 1004.60 1004.45 1004.30 1004.32 1004.36 1004.29 1004.50 1004.76 1004.90 1005.41 1005.76 1006.10 1006.57 1006.30 1005.96 1006.28 1006.49 1006.99 1007.21 1007.53 1007.63 1007.99 1008.48 1008.79 1008.83 1008.83 1008.61 1008.29 1008.34 1008.32 1008.32 1008.30
1007.89 1007.99 1008.01 1007.59 1007.16 1006.77 1006.36 1006.52 1006.60 1006.72 1006.58 1006.61 1006.56 1006.07 1005.21 1004.72 1006.54 1007.26 1006.20 1006.45 1005.66 1005.39 1006.05 1005.78 1004.52 1004.63 1004.83 1004.98 1004.94 1005.52 1005.54 1005.33 1005.47 1006.11 1006.55 1006.86 1007.43 1007.92 1007.36 1007.35 1007.99 1008.18 1008.30 1008.55 1008.85 1009.14 1009.31 1009.52 1009.50 1009.45 1009.47 1009.30 1009.04 1009.02
1007.82 1007.46 1007.23 1006.76 1006.30 1005.80 1005.50 1005.30 1006.13 1006.48 1006.77 1006.80 1006.84 1006.44 1005.22 1004.66 1005.48 1006.29 1006.56 1007.30 1007.57 1007.78 1008.25 1006.83 1006.65 1006.20 1005.49 1005.54 1005.56 1005.66 1005.97 1006.73 1007.23 1007.47 1007.52 1007.53 1007.80 1008.01 1007.96 1008.31 1008.76 1009.09 1009.42 1009.77 1010.01 1009.32 1009.55 1009.50 1009.57 1009.42 1009.41 1009.47 1009.25 1009.23
Wind_Speed
9 8 8 9 10 10 11 9 9 11 12 13 15 16 18 17 18 12 8 6 7 6 10 7 8 8 9 5 7 9 6 9 6 8 8 10 10 10 6 4 8 11 8 9 10 13 6 11 9 5 5 4 6 7
8 8 8 9 9 9 10 7 9 10 11 12 13 14 16 15 16 15 7 8 7 5 9 13 11 9 9 11 9 8 11 7 6 7 7 6 10 8 5 9 6 5 5 7 5 7 3 2 6 8 9 8 7 1
8 8 9 10 8 9 9 6 8 10 11 11 12 12 14 13 13 10 8 9 9 8 11 12 8 7 5 6 9 8 8 9 6 6 6 8 9 7 8 9 13 2 10 5 5 6 12 7 4 4 4 9 11 11
8 9 9 8 8 9 6 6 8 10 10 10 11 12 12 12 12 11 7 8 7 7 6 7 6 2 2 2 4 7 11 8 7 6 8 8 9 8 8 8 9 9 10 6 8 11 10 8 12 10 8 7 14 12
8 9 9 7 8 5 6 7 8 9 10 10 11 11 11 12 13 10 8 7 3 6 7 10 16 12 13 4 5 7 8 9 6 8 7 8 9 9 8 4 8 10 9 6 7 8 5 8 12 14 13 10 14 12
8 9 8 9 6 6 6 8 8 10 10 11 10 11 11 11 12 7 5 4 9 7 5 6 4 5 4 1 6 8 7 7 8 8 7 7 12 6 4 8 11 11 5 3 5 8 10 10 10 11 11 11 12 10
8 8 8 6 6 6 7 7 8 10 10 10 10 10 10 10 8 5 6 5 9 7 5 6 6 7 2 6 8 7 7 6 6 8 9 9 10 3 8 10 12 11 11 7 9 7 9 7 9 10 10 13 14 14
8 9 8 7 6 7 6 6 8 9 10 10 10 9 11 12 12 8 0 9 5 6 5 5 6 5 10 6 6 4 4 6 6 7 8 10 5 4 8 8 9 7 10 8 9 5 4 10 12 10 12 16 16 16
8 8 8 7 7 7 6 6 7 8 9 9 9 10 6 5 4 4 4 6 4 5 6 5 8 4 2 6 6 4 4 7 4 7 10 7 9 5 6 8 12 6 9 8 9 7 10 10 12 9 13 14 16 17
8 8 8 8 7 6 6 6 6 7 8 9 6 5 4 5 8 5 4 4 5 5 6 7 10 10 3 6 4 4 2 3 4 5 5 7 11 14 8 13 3 6 8 5 5 7 6 8 8 13 16 18 16 13
7 8 8 8 8 6 5 5 5 6 6 4 4 1 3 4 4 4 3 4 5 4 6 6 9 10 4 5 6 1 3 1 5 5 4 4 9 4 9 8 4 2 4 6 6 7 8 10 10 12 15 16 16 16
7 7 7 8 7 6 5 5 2 3 3 6 5 6 4 4 4 5 4 4 5 5 5 7 3 6 1 3 3 1 2 1 6 4 3 6 3 7 5 7 4 2 4 9 11 10 10 12 13 10 14 16 16 16
7 6 6 6 6 6 5 5 5 7 12 6 5 4 4 4 2 7 8 6 6 5 4 5 5 1 0 2 2 4 4 6 6 4 6 3 7 7 4 2 1 3 7 9 9 7 11 9 12 14 15 16 17 14
6 6 6 6 6 6 5 5 4 2 3 4 5 3 6 7 7 8 9 4 1 0 1 3 3 1 1 2 3 5 5 4 4 7 11 5 4 3 3 1 5 8 8 10 10 8 9 13 13 14 14 14 15 17
5 5 5 7 7 6 5 4 4 2 1 4 4 5 9 9 3 3 4 4 3 1 3 4 3 3 3 5 5 3 4 6 6 5 5 5 6 4 3 5 8 7 5 9 12 11 11 11 12 13 13 12 13 13
5 4 8 9 11 8 6 5 2 1 1 3 4 8 9 8 5 8 6 5 2 3 5 4 3 3 6 4 6 6 5 3 5 4 5 3 3 3 3 6 8 10 8 10 8 10 13 12 12 12 14 14 14 14
5 3 10 12 11 9 7 2 3 4 4 3 5 9 9 10 6 4 4 3 6 6 2 0 4 9 4 5 7 2 3 3 7 5 3 1 2 3 5 7 8 10 9 8 10 8 9 13 14 13 12 11 14 12
2 1 10 13 10 7 1 1 3 4 5 4 6 8 9 11 1 6 2 3 10 2 1 5 4 5 5 5 2 3 4 5 5 6 7 7 2 3 5 6 7 9 10 9 10 11 11 12 11 8 10 10 10 9
7 5 8 12 8 2 4 4 2 3 5 4 10 12 11 6 8 10 5 8 6 9 3 2 6 7 9 6 9 4 5 3 4 4 7 5 5 3 5 7 7 7 6 8 10 8 8 10 7 6 7 7 7 6
2 0 2 1 5 2 4 2 1 3 5 6 9 10 11 8 10 7 9 7 8 8 7 5 9 10 10 4 2 9 1 4 10 4 1 5 4 4 7 7 6 5 4 8 7 7 8 7 6 7 7 8 7 8
5 4 5 3 3 2 3 3 5 5 5 8 11 7 6 8 8 9 9 8 7 8 9 12 12 12 9 10 4 6 5 11 2 4 3 3 7 8 7 6 3 3 6 6 6 4 9 8 6 6 6 7 7 7
1 9 3 2 1 2 5 5 4 4 5 6 7 7 8 10 10 10 10 9 12 12 10 10 10 12 9 12 11 7 7 6 4 5 5 6 9 3 2 2 3 5 5 4 4 4 7 7 6 7 8 7 7 8
4 3 1 4 5 4 6 5 6 5 5 3 5 4 6 9 11 9 11 10 12 13 12 13 13 8 12 10 9 9 7 6 6 8 7 7 7 3 4 3 4 5 7 5 5 7 6 9 8 9 8 7 8 9
3 3 5 7 7 5 4 5 4 4 5 8 9 12 11 3 2 3 8 10 10 5 3 5 5 6 2 4 4 8 8 7 6 7 6 3 4 4 3 5 7 6 7 9 3 5 8 6 9 8 6 6 8 8
3 4 3 4 4 5 5 5 5 4 6 7 9 6 3 2 3 4 7 6 2 3 4 4 2 2 2 4 10 9 6 7 7 4 3 4 4 4 8 4 7 6 5 7 5 5 7 7 7 7 7 7 9 9
4 4 3 4 5 6 6 4 5 6 6 4 4 2 1 2 4 5 2 0 2 4 3 4 3 1 8 8 8 4 4 4 6 6 6 5 7 8 6 5 4 2 4 4 6 6 6 6 7 9 9 9 8 11
4 5 5 4 4 5 3 3 1 2 5 4 2 1 1 4 5 2 3 2 2 3 5 6 5 5 4 3 5 5 6 7 6 6 9 11 10 6 7 8 5 2 5 6 6 6 7 7 7 7 8 7 8 9
5 3 6 6 9 2 3 2 3 3 2 1 1 3 1 2 3 3 3 4 3 1 4 6 5 3 4 7 7 4 4 5 4 5 5 5 4 7 7 8 7 8 8 9 5 6 6 6 6 6 6 6 6 6
5 2 4 3 4 3 6 5 4 2 2 4 3 3 3 3 3 4 2 5 4 4 7 9 11 11 10 7 6 7 9 8 10 11 10 7 8 8 6 7 7 7 6 6 8 8 8 7 4 4 7 6 5 5
4 2 0 1 4 5 3 4 3 4 5 6 4 4 5 4 7 6 7 5 7 5 8 9 8 8 9 11 11 12 10 6 4 5 4 6 8 8 7 7 7 7 8 8 8 6 1 6 3 7 4 3 2 2
3 5 2 3 4 4 6 6 7 6 5 6 8 8 9 7 6 7 9 9 9 8 7 10 11 11 10 9 8 7 9 7 6 9 4 7 4 7 7 5 4 4 4 7 7 4 4 1 4 6 8 7 5 6
2 1 2 2 2 4 6 5 3 3 3 4 1 4 3 5 8 9 9 7 10 10 9 8 7 11 11 5 7 8 10 4 9 7 10 8 7 7 7 6 7 6 7 4 9 5 5 3 1 4 3 2 3 2
3 2 2 2 2 4 5 5 4 4 6 6 7 7 2 4 7 6 4 6 14 10 5 10 8 5 9 8 6 6 9 9 11 10 10 12 11 4 4 6 8 8 9 9 13 4 6 7 6 5 6 4 2 4
Wind_Direction
239 253 272 285 287 299 299 304 313 318 324 330 334 335 339 342 347 346 300 27 356 315 309 356 351 331 331 263 293 34 291 220 271 263 274 279 265 275 266 273 299 290 288 277 258 269 254 17 321 354 53 86 34 28
245 262 269 279 280 295 299 299 310 317 318 324 329 329 333 338 344 341 294 356 333 268 312 312 287 287 284 293 305 311 311 315 336 318 345 332 309 303 285 278 342 255 272 300 321 10 182 132 64 27 6 344 334 325
244 259 270 272 274 290 295 296 304 313 312 318 321 323 328 333 340 346 304 310 322 271 271 236 224 155 265 249 253 280 276 341 314 337 319 296 304 336 301 301 325 19 14 273 269 302 327 343 348 297 334 348 326 307
252 264 265 268 273 286 278 290 303 308 307 314 313 317 322 328 329 327 306 317 309 301 275 134 98 173 187 285 257 282 297 291 297 294 282 281 277 277 276 304 313 304 332 306 292 277 313 300 2 11 348 329 305 300
248 256 266 270 274 258 270 290 301 305 306 308 309 316 320 322 319 299 273 279 320 328 322 320 309 269 183 187 282 266 267 265 259 262 239 249 260 278 276 278 281 285 291 293 315 348 343 311 323 318 310 317 300 304
238 254 262 271 242 254 276 290 298 298 307 308 309 311 313 317 323 289 204 132 16 350 288 290 348 174 231 212 264 256 254 250 254 263 271 279 294 276 268 280 297 323 17 2 305 318 325 342 309 305 318 321 301 331
239 248 256 232 239 260 274 289 295 293 299 300 304 305 305 310 299 292 355 7 346 308 258 283 276 141 175 222 242 232 216 240 243 245 251 270 284 253 266 261 273 299 319 352 347 335 303 340 326 312 270 261 295 299
238 240 230 226 246 262 268 287 296 304 300 296 294 298 296 291 273 264 258 214 259 269 275 271 268 205 161 221 218 197 222 213 240 248 257 266 253 238 254 276 308 326 351 339 333 347 320 284 290 320 320 298 300 304
233 228 214 226 244 256 259 282 291 299 300 297 296 295 275 217 239 68 134 163 223 292 307 246 262 14 102 255 293 179 223 243 222 240 234 245 256 236 239 258 266 281 283 271 267 272 289 307 305 299 293 312 298 301
220 211 218 227 233 252 262 276 287 296 304 303 276 215 223 35 121 147 179 206 207 210 224 257 289 278 291 276 215 209 38 287 269 262 249 234 255 267 226 217 244 260 300 332 281 281 275 278 294 309 312 306 303 326
218 216 219 223 234 236 252 266 275 302 265 223 234 360 59 120 230 225 204 227 190 247 215 242 238 257 246 255 295 92 181 286 264 242 228 260 246 258 124 108 102 33 346 322 318 302 308 306 304 298 302 328 328 320
221 213 218 226 222 223 240 253 252 234 299 322 303 265 233 216 209 225 213 212 214 246 200 226 178 225 42 349 272 277 247 169 257 191 208 253 62 94 109 124 146 12 333 315 330 327 309 317 314 322 321 317 311 302
198 200 195 196 210 220 235 243 238 287 294 254 223 234 217 194 141 225 190 201 214 212 209 182 202 199 89 209 272 272 242 230 305 258 235 285 123 102 69 9 5 314 267 278 279 309 308 320 324 320 322 310 315 298
186 189 199 205 211 215 225 236 228 239 281 257 203 255 217 195 230 214 242 45 323 221 195 38 93 41 94 275 193 251 222 232 225 238 235 103 119 128 111 306 301 298 351 331 302 290 335 327 327 324 304 313 326 325
187 197 206 216 210 205 213 204 187 229 261 256 245 240 219 245 302 279 317 202 221 138 146 221 172 230 221 242 224 241 226 224 242 258 81 108 112 82 34 333 325 325 320 319 334 349 340 329 321 322 323 325 324 321
194 210 215 190 186 191 180 145 169 249 218 265 263 252 263 278 239 234 245 288 242 243 198 254 189 229 226 237 221 218 246 227 38 48 96 116 91 67 344 336 332 331 339 341 343 334 325 335 323 324 333 331 327 327
199 269 156 163 164 160 186 187 193 214 228 217 249 245 263 279 250 329 286 285 249 231 220 49 233 220 221 235 240 286 347 64 130 111 84 26 322 353 332 321 329 333 344 322 322 344 358 351 349 341 334 331 330 315
268 86 149 144 155 135 130 239 245 221 225 228 251 253 247 262 354 236 174 338 301 331 15 238 316 263 254 258 49 308 62 16 338 180 189 208 213 282 275 318 6 338 335 7 17 7 4 356 351 337 331 335 323 323
47 58 148 167 186 186 169 197 238 249 219 220 235 259 277 271 282 282 230 201 284 295 158 256 237 241 253 281 301 92 298 280 141 278 254 203 251 267 21 17 346 1 51 42 25 12 15 5 345 335 332 340 336 344
180 68 77 213 232 255 182 209 222 257 245 239 234 250 258 261 270 247 272 273 209 236 254 212 243 260 267 247 347 296 175 167 246 249 255 324 350 23 53 354 356 327 126 58 48 22 30 15 5 3 19 8 358 358
156 153 144 181 157 255 288 186 223 252 259 250 256 253 262 264 256 270 263 264 248 219 235 247 249 265 289 312 291 167 152 255 299 308 335 328 335 343 352 325 103 53 79 64 59 35 39 31 20 20 19 22 15 12
223 145 116 203 175 234 252 222 223 288 259 252 269 248 248 254 247 238 233 231 246 246 244 250 256 269 268 274 278 298 325 316 252 252 238 252 260 263 287 319 26 59 101 140 128 84 71 65 59 39 33 20 18 33
188 113 220 193 208 213 256 204 226 225 249 261 245 256 248 245 249 261 249 243 242 234 235 232 239 247 259 269 293 288 278 271 260 266 264 250 241 211 106 133 141 155 154 186 203 121 119 131 111 87 77 63 54 49
179 211 212 197 199 221 243 203 220 240 254 253 264 262 256 237 284 253 255 243 248 248 355 337 280 257 317 351 333 289 243 233 236 252 263 211 221 122 187 240 201 196 144 179 129 77 138 132 160 131 115 104 91 76
202 220 210 247 225 192 245 188 218 245 253 240 267 279 301 312 262 252 260 274 7 338 311 274 251 44 318 228 241 258 191 194 207 217 45 140 84 28 260 160 66 11 54 73 72 108 105 74 49 59 82 85 86 102
238 211 199 228 184 218 202 258 216 226 247 238 241 272 319 296 257 257 257 169 240 228 226 241 252 202 246 236 219 177 83 349 115 132 135 127 188 233 128 129 104 69 347 108 113 98 89 97 105 109 108 94 59 64
242 234 225 220 247 255 246 260 149 248 252 226 264 191 166 243 247 266 313 331 300 261 224 215 193 208 227 186 103 84 115 117 118 181 195 205 204 163 168 167 169 46 232 123 106 115 114 104 96 98 98 90 84 78
249 236 222 214 212 190 269 247 246 245 258 105 327 269 255 244 296 307 271 312 294 165 107 119 118 167 142 99 116 102 133 156 182 185 249 188 82 89 87 93 80 57 71 43 349 133 117 107 102 91 76 60 52 69
247 183 163 219 169 183 216 208 238 198 123 155 191 219 220 201 272 260 279 137 151 109 121 133 137 143 151 151 156 174 167 179 205 195 152 143 132 119 132 140 160 179 137 111 55 44 24 15 60 102 137 126 124 112
241 148 351 225 210 232 206 190 233 213 192 196 201 248 148 143 245 229 234 238 253 145 148 148 142 145 157 172 180 191 195 187 144 155 155 163 154 151 162 152 176 148 136 126 128 127 18 290 240 285 269 184 89 99
201 176 247 174 244 239 234 221 215 224 208 213 219 220 155 198 176 220 208 232 232 187 179 173 166 159 158 155 137 145 135 132 116 108 91 18 116 134 128 111 122 137 142 93 60 35 118 178 349 37 47 31 49 53
312 336 317 303 124 189 190 199 198 217 227 205 87 317 256 126 88 359 333 347 5 29 24 5 51 72 53 29 123 99 42 61 133 110 108 97 81 24 16 85 71 26 26 8 133 121 113 101 37 46 20 314 29 68
262 242 257 268 232 220 230 158 140 35 354 357 5 333 321 67 73 135 206 118 70 3 323 300 309 322 111 105 93 82 70 77 78 73 74 85 84 94 139 102 104 96 62 34 319 76 3 360 329 273 197 217 184 53